Back to catalog

STARLINK-33926

AliveCommunicationsSSO
NORAD 64147·PAYLOAD·🇺🇸 United States

Launched May 27, 2025 from Vandenberg Space Force Base

Loading…

Next Passes (next 24 hours)

TLE

FreshSource: CelesTrak SupGP

Epoch: Sep 14, 2026, 21:00 UTC

1 64147C 25112B   26257.87548611 -.00013118  00000+0 -40730-3 0  2574
2 64147  97.2832 305.0680 0000964  97.1788 103.4628 15.33438980    15

Track STARLINK-33926 in real time with AllMySat

Download on the App Store